Brookshire, TX

10:32 AM CST on February 09, 2016 (GMT -0600)
Houston

Weather History for KTME - January, 2013

Change the Weather History Date:

Tuesday, January 8, 2013

  Actual Average (KSGR) Record (KSGR)
Temperature  
Mean Temperature 56 °F -  
Max Temperature 64 °F 57 °F 79 °F (1965)
Min Temperature 48 °F 40 °F 18 °F (1976)
Degree Days  
Heating Degree Days 9    
Growing Degree Days 6 (Base 50)    
Moisture  
Dew Point 56 °F    
Average Humidity 97    
Maximum Humidity 100    
Minimum Humidity 76    
Precipitation  
Precipitation 0.53 in - - ()
Sea Level Pressure  
Sea Level Pressure 29.98 in    
Wind  
Wind Speed 9 mph (ENE)    
Max Wind Speed 24 mph    
Max Gust Speed 31 mph    
Visibility 4 miles    
Events Fog , Rain    
Averages and records for this station are not official NWS values.
T = Trace of Precipitation, MM = Missing Value Source: NWS Daily Summary

Daily Weather History Graph

Daily Weather History Graph

Search for Another Location

Airport or City:

Trip Planner

Search our weather history database for the weather conditions in past years. The results will help you decide how hot, cold, wet, or windy it might be!

Date:

Astronomy

Jan. 08, 2013 Rise Set
Actual Time 7:20 AM CST 5:41 PM CST
Civil Twilight 6:54 AM CST 6:07 PM CST
Nautical Twilight 6:24 AM CST 6:36 PM CST
Astronomical Twilight 5:55 AM CST 7:05 PM CST
Moon 3:55 AM CST (1/8) 2:43 PM CST (1/8)
Length of Visible Light 11h 12m
Length of Day
10h 20m
Waning Crescent, 13% of the Moon is Illuminated
Jan 8
Waning Crescent
Jan 11
New
Jan 18
First Quarter
Jan 26
Full
Feb 3
Last Quarter

Hourly Weather History & Observations

Time (CST) Temp. Dew Point Humidity Pressure Visibility Wind Dir Wind Speed Gust Speed Precip Events Conditions
12:15 AM 50.0 °F 46.4 °F 87% 30.10 in 8.0 mi NE 8.1 mph - N/A   Overcast
12:35 AM 50.0 °F 46.4 °F 87% 30.09 in 10.0 mi ENE 6.9 mph - N/A   Overcast
12:55 AM 51.8 °F 44.6 °F 76% 30.08 in 10.0 mi ENE 8.1 mph - N/A   Overcast
1:15 AM 51.8 °F 44.6 °F 76% 30.07 in 9.0 mi NE 6.9 mph - N/A   Overcast
1:35 AM 51.8 °F 46.4 °F 82% 30.07 in 8.0 mi NE 8.1 mph - N/A   Overcast
1:55 AM 51.8 °F 44.6 °F 76% 30.06 in 9.0 mi ENE 8.1 mph - N/A   Overcast
2:15 AM 51.8 °F 46.4 °F 82% 30.05 in 8.0 mi ENE 9.2 mph - N/A   Overcast
2:35 AM 51.8 °F 46.4 °F 82% 30.05 in 8.0 mi NE 6.9 mph - N/A   Overcast
2:55 AM 51.8 °F 46.4 °F 82% 30.05 in 9.0 mi NE 8.1 mph - N/A   Overcast
3:15 AM 51.8 °F 46.4 °F 82% 30.04 in 10.0 mi NE 8.1 mph - N/A   Overcast
3:35 AM 53.6 °F 46.4 °F 77% 30.03 in 10.0 mi ENE 10.4 mph - N/A   Overcast
3:55 AM 50.0 °F 48.2 °F 94% 30.03 in 3.0 mi NE 6.9 mph - 0.01 in Rain Light Rain
4:15 AM 50.0 °F 50.0 °F 100% 30.01 in 2.5 mi NE 10.4 mph - 0.02 in Rain Light Rain
4:35 AM 48.2 °F 48.2 °F 100% 30.00 in 2.0 mi NE 10.4 mph - 0.12 in Rain Rain
4:55 AM 50.0 °F 50.0 °F 100% 30.00 in 3.0 mi ENE 10.4 mph - 0.15 in Rain Light Rain
5:35 AM 50.0 °F 50.0 °F 100% 30.00 in 5.0 mi NE 10.4 mph - 0.01 in   Overcast
5:55 AM 48.2 °F 48.2 °F 100% 30.00 in 5.0 mi NE 10.4 mph - 0.01 in   Overcast
6:15 AM 48.2 °F 48.2 °F 100% 30.00 in 5.0 mi NE 11.5 mph - N/A   Overcast
6:35 AM 48.2 °F 48.2 °F 100% 29.98 in 4.0 mi NE 13.8 mph - N/A   Overcast
6:55 AM 48.2 °F 48.2 °F 100% 30.00 in 3.0 mi NNE 9.2 mph - N/A   Overcast
7:15 AM 50.0 °F 50.0 °F 100% 30.00 in 3.0 mi ENE 8.1 mph - N/A   Overcast
7:35 AM 50.0 °F 50.0 °F 100% 30.01 in 3.0 mi NE 8.1 mph - N/A   Overcast
7:55 AM 51.8 °F 51.8 °F 100% 30.01 in 3.0 mi NE 9.2 mph - N/A   Overcast
8:15 AM 53.6 °F 53.6 °F 100% 30.03 in 4.0 mi ENE 9.2 mph - N/A   Overcast
8:35 AM 53.6 °F 53.6 °F 100% 30.04 in 3.0 mi NE 9.2 mph - N/A   Overcast
8:55 AM 53.6 °F 53.6 °F 100% 30.05 in 3.0 mi NE 8.1 mph - N/A   Overcast
9:15 AM 53.6 °F 53.6 °F 100% 30.04 in 2.0 mi NE 10.4 mph - N/A   Overcast
9:35 AM 53.6 °F 53.6 °F 100% 30.04 in 2.0 mi NE 8.1 mph - N/A   Overcast
9:55 AM 53.6 °F 53.6 °F 100% 30.04 in 0.2 mi NE 5.8 mph - 0.01 in Rain Rain
10:15 AM 55.4 °F 55.4 °F 100% 30.03 in 0.8 mi NE 8.1 mph - 0.05 in Rain Heavy Rain
10:35 AM 55.4 °F 55.4 °F 100% 30.02 in 1.8 mi ENE 9.2 mph - 0.08 in Rain Light Rain
10:55 AM 57.2 °F 57.2 °F 100% 30.01 in 1.8 mi ENE 9.2 mph - 0.09 in   Overcast
11:15 AM 57.2 °F 57.2 °F 100% 30.00 in 1.0 mi ENE 8.1 mph - N/A   Overcast
11:35 AM 57.2 °F 57.2 °F 100% 29.98 in 0.8 mi ENE 10.4 mph - N/A   Overcast
11:55 AM 59.0 °F 59.0 °F 100% 29.97 in 0.5 mi ENE 9.2 mph - N/A Rain Light Rain
12:15 PM 59.0 °F 59.0 °F 100% 29.96 in 0.5 mi ENE 10.4 mph - N/A Fog Fog
12:35 PM 59.0 °F 59.0 °F 100% 29.95 in 0.5 mi East 11.5 mph 16.1 mph N/A Rain Light Rain
12:55 PM 60.8 °F 60.8 °F 100% 29.96 in 1.0 mi East 10.4 mph - 0.01 in   Overcast
1:15 PM 60.8 °F 60.8 °F 100% 29.95 in 0.8 mi East 6.9 mph - N/A Rain Light Rain
1:35 PM 60.8 °F 60.8 °F 100% 29.94 in 0.5 mi NE 4.6 mph - 0.04 in Rain Light Rain
1:55 PM 60.8 °F 60.8 °F 100% 29.93 in 0.8 mi ENE 12.7 mph - 0.07 in Rain Light Rain
2:15 PM 60.8 °F 60.8 °F 100% 29.92 in 0.8 mi ENE 13.8 mph - 0.02 in Rain Light Rain
2:55 PM 62.6 °F 62.6 °F 100% 29.91 in 1.0 mi ESE 18.4 mph - 0.07 in Rain Rain
3:15 PM 64.4 °F 64.4 °F 100% 29.91 in 2.0 mi East 18.4 mph - 0.04 in Rain Light Rain
3:55 PM 64.4 °F 64.4 °F 100% 29.85 in 5.0 mi East 24.2 mph 31.1 mph 0.10 in   Clear
4:15 PM 64.4 °F 64.4 °F 100% 29.84 in 5.0 mi East 21.9 mph 29.9 mph N/A   Clear
4:35 PM 64.4 °F 64.4 °F 100% 29.88 in 3.0 mi ESE 20.7 mph - N/A   Scattered Clouds
4:55 PM 64.4 °F 64.4 °F 100% 29.89 in 2.5 mi East 15.0 mph - N/A   Overcast
5:15 PM 64.4 °F 64.4 °F 100% 29.90 in 2.5 mi ESE 12.7 mph 19.6 mph N/A   Overcast
5:35 PM 64.4 °F 64.4 °F 100% 29.89 in 2.5 mi East 12.7 mph - N/A   Overcast
5:55 PM 64.4 °F 64.4 °F 100% 29.90 in 3.0 mi ENE 8.1 mph - N/A   Overcast
6:15 PM 64.4 °F 64.4 °F 100% 29.92 in 3.0 mi ENE 6.9 mph - N/A   Overcast
6:35 PM 64.4 °F 64.4 °F 100% 29.93 in 3.0 mi East 8.1 mph - N/A   Overcast
6:55 PM 62.6 °F 62.6 °F 100% 29.93 in 3.0 mi ENE 9.2 mph - N/A   Overcast
7:15 PM 62.6 °F 62.6 °F 100% 29.92 in 3.0 mi NE 6.9 mph - N/A   Overcast
7:35 PM 62.6 °F 62.6 °F 100% 29.93 in 3.0 mi NNE 6.9 mph - N/A   Mostly Cloudy
7:55 PM 60.8 °F 60.8 °F 100% 29.93 in 4.0 mi NE 6.9 mph - N/A   Mostly Cloudy
8:15 PM 60.8 °F 60.8 °F 100% 29.93 in 4.0 mi NE 5.8 mph - N/A   Mostly Cloudy
8:35 PM 60.8 °F 60.8 °F 100% 29.93 in 4.0 mi NE 5.8 mph - N/A   Partly Cloudy
8:55 PM 60.8 °F 60.8 °F 100% 29.94 in 3.0 mi NE 6.9 mph - N/A   Scattered Clouds
9:15 PM 60.8 °F 60.8 °F 100% 29.93 in 4.0 mi NE 11.5 mph - N/A   Mostly Cloudy
9:35 PM 60.8 °F 60.8 °F 100% 29.93 in 3.0 mi ENE 12.7 mph - N/A   Overcast
9:55 PM 62.6 °F 62.6 °F 100% 29.94 in 3.0 mi ENE 12.7 mph - N/A   Overcast
10:15 PM 62.6 °F 62.6 °F 100% 29.94 in 3.0 mi NE 8.1 mph - N/A   Overcast
10:35 PM 62.6 °F 62.6 °F 100% 29.96 in 3.0 mi East 8.1 mph - N/A   Overcast
10:55 PM 62.6 °F 62.6 °F 100% 29.98 in 3.0 mi East 3.5 mph - N/A   Overcast
11:15 PM 62.6 °F 62.6 °F 100% 29.96 in 5.0 mi East 11.5 mph 16.1 mph N/A Rain Light Rain
11:35 PM 62.6 °F 62.6 °F 100% 29.96 in 8.0 mi East 12.7 mph 18.4 mph N/A   Overcast
11:55 PM 60.8 °F 60.8 °F 100% 29.96 in 4.0 mi East 15.0 mph - 0.01 in Rain Light Rain